2014-12-08 00:03:23 r, 14.42m,0000000152Hz,0000000000c,0000000.000s, 012.8C,00002195
2014-12-08 00:13:23 r, 14.49m,0000000142Hz,0000000000c,0000000.000s, 012.8C,00002195
2014-12-08 00:23:23 r, 14.43m,0000000151Hz,0000000000c,0000000.000s, 012.8C,00002195
2014-12-08 00:33:23 r, 14.25m,0000000177Hz,0000000000c,0000000.000s, 012.8C,00002195
2014-12-08 00:43:23 r, 14.55m,0000000135Hz,0000000000c,0000000.000s, 012.5C,00002195
2014-12-08 00:53:23 r, 14.68m,0000000118Hz,0000003875c,0000000.008s, 012.8C,00002195
2014-12-08 01:03:23 r, 14.81m,0000000105Hz,0000004382c,0000000.010s, 012.5C,00002195
2014-12-08 01:13:23 r, 14.74m,0000000113Hz,0000004104c,0000000.009s, 012.5C,00002195
2014-12-08 01:23:23 r, 14.56m,0000000134Hz,0000000000c,0000000.000s, 012.5C,00002195
2014-12-08 01:33:23 r, 14.81m,0000000106Hz,0000004356c,0000000.009s, 012.5C,00002195
2014-12-08 01:43:23 r, 14.79m,0000000106Hz,0000004309c,0000000.009s, 012.2C,00002195
2014-12-08 01:53:23 r, 14.92m,0000000095Hz,0000004833c,0000000.010s, 012.2C,00002195
2014-12-08 02:03:23 r, 14.95m,0000000091Hz,0000004968c,0000000.011s, 011.9C,00002195
2014-12-08 02:13:23 r, 14.52m,0000000139Hz,0000000000c,0000000.000s, 011.6C,00002195
2014-12-08 02:23:23 r, 14.20m,0000000186Hz,0000000000c,0000000.000s, 011.6C,00002195
2014-12-08 02:33:23 r, 14.13m,0000000198Hz,0000000000c,0000000.000s, 011.2C,00002195
2014-12-08 02:43:23 r, 14.14m,0000000196Hz,0000000000c,0000000.000s, 011.2C,00002195
2014-12-08 02:53:23 r, 14.17m,0000000191Hz,0000000000c,0000000.000s, 010.9C,00002195
2014-12-08 03:03:23 r, 14.17m,0000000191Hz,0000000000c,0000000.000s, 010.6C,00002195
2014-12-08 03:13:23 r, 14.56m,0000000133Hz,0000000000c,0000000.000s, 010.6C,00002195
2014-12-08 03:23:23 r, 14.65m,0000000122Hz,0000003791c,0000000.008s, 010.3C,00002195
2014-12-08 03:33:23 r, 14.80m,0000000107Hz,0000004340c,0000000.009s, 010.3C,00002195
2014-12-08 03:43:23 r, 15.06m,0000000084Hz,0000005520c,0000000.012s, 010.3C,00002195
2014-12-08 03:53:23 r, 15.10m,0000000081Hz,0000005682c,0000000.012s, 009.9C,00002195
2014-12-08 04:03:23 r, 14.76m,0000000111Hz,0000004170c,0000000.009s, 009.9C,00002195
2014-12-08 04:13:23 r, 14.89m,0000000097Hz,0000004707c,0000000.010s, 009.9C,00002195
2014-12-08 04:23:23 r, 14.68m,0000000118Hz,0000003899c,0000000.008s, 009.6C,00002195
2014-12-08 04:33:23 r, 14.38m,0000000157Hz,0000000000c,0000000.000s, 009.6C,00002195
2014-12-08 04:43:23 r, 14.15m,0000000195Hz,0000000000c,0000000.000s, 009.6C,00002195
2014-12-08 04:53:23 r, 14.30m,0000000169Hz,0000000000c,0000000.000s, 009.3C,00002195
2014-12-08 05:03:23 r, 14.26m,0000000175Hz,0000000000c,0000000.000s, 009.3C,00002195
2014-12-08 05:13:23 r, 13.87m,0000000251Hz,0000000000c,0000000.000s, 009.0C,00002195
2014-12-08 05:23:23 r, 13.73m,0000000287Hz,0000000000c,0000000.000s, 008.7C,00002195
2014-12-08 05:33:23 r, 13.72m,0000000288Hz,0000000000c,0000000.000s, 008.3C,00002195
2014-12-08 05:43:23 r, 13.72m,0000000288Hz,0000000000c,0000000.000s, 008.3C,00002195
2014-12-08 05:53:23 r, 13.72m,0000000291Hz,0000000000c,0000000.000s, 008.0C,00002195
2014-12-08 06:03:23 r, 13.68m,0000000301Hz,0000000000c,0000000.000s, 008.0C,00002195
2014-12-08 06:13:23 r, 13.73m,0000000287Hz,0000000000c,0000000.000s, 007.7C,00002195
2014-12-08 06:23:23 r, 13.83m,0000000261Hz,0000000000c,0000000.000s, 007.7C,00002195
2014-12-08 06:33:23 r, 13.74m,0000000285Hz,0000000000c,0000000.000s, 007.7C,00002195
2014-12-08 06:43:23 r, 13.71m,0000000292Hz,0000000000c,0000000.000s, 007.7C,00002195
2014-12-08 06:53:23 r, 13.71m,0000000292Hz,0000000000c,0000000.000s, 007.7C,00002195
2014-12-08 07:03:23 r, 13.80m,0000000269Hz,0000000000c,0000000.000s, 007.7C,00002195
2014-12-08 07:13:23 r, 13.79m,0000000271Hz,0000000000c,0000000.000s, 007.7C,00002195
2014-12-08 07:23:23 r, 13.60m,0000000324Hz,0000000000c,0000000.000s, 007.7C,00002195
2014-12-08 07:33:23 r, 13.16m,0000000487Hz,0000000000c,0000000.000s, 007.4C,00002195
2014-12-08 07:43:23 r, 11.95m,0000001473Hz,0000000000c,0000000.000s, 007.4C,00002195
2014-12-08 07:53:23 r, 10.46m,0000005799Hz,0000000000c,0000000.000s, 007.4C,00002195
2014-12-08 08:03:23 r, 09.19m,0000018724Hz,0000000000c,0000000.000s, 007.4C,00002195
2014-12-08 08:13:23 r, 08.28m,0000043397Hz,0000000000c,0000000.000s, 007.4C,00002195
2014-12-08 08:23:23 r, 07.34m,0000103931Hz,0000000000c,0000000.000s, 007.4C,00002195
2014-12-08 08:33:23 r, 06.89m,0000157401Hz,0000000000c,0000000.000s, 007.4C,00002195
2014-12-08 08:43:23 r, 06.47m,0000231300Hz,0000000000c,0000000.000s, 007.7C,00002195
2014-12-08 08:53:23 r, 06.16m,0000305994Hz,0000000000c,0000000.000s, 007.7C,00002195
2014-12-08 09:03:23 r, 00.00m,0000410558Hz,0000000000c,0000000.000s, 007.4C,00002195
2014-12-08 09:13:23 r, 00.00m,0000520576Hz,0000000000c,0000000.000s, 007.7C,00002195
2014-12-08 09:23:23 r, 00.00m,0000561554Hz,0000000000c,0000000.000s, 007.7C,00002195
2014-12-08 09:33:23 r, 00.00m,0000561531Hz,0000000000c,0000000.000s, 007.7C,00002195
2014-12-08 09:43:23 r, 00.00m,0000561522Hz,0000000000c,0000000.000s, 008.0C,00002195
2014-12-08 09:53:23 r, 00.00m,0000561613Hz,0000000000c,0000000.000s, 008.0C,00002195
2014-12-08 10:03:23 r, 00.00m,0000561858Hz,0000000000c,0000000.000s, 008.3C,00002195
2014-12-08 10:13:23 r, 00.00m,0000561742Hz,0000000000c,0000000.000s, 008.3C,00002195
2014-12-08 10:23:23 r, 00.00m,0000561716Hz,0000000000c,0000000.000s, 008.7C,00002195
2014-12-08 10:33:23 r, 00.00m,0000561799Hz,0000000000c,0000000.000s, 009.0C,00002195
2014-12-08 10:43:23 r, 00.00m,0000561819Hz,0000000000c,0000000.000s, 009.0C,00002195
2014-12-08 10:53:23 r, 00.00m,0000561888Hz,0000000000c,0000000.000s, 009.3C,00002195
2014-12-08 11:03:23 r, 00.00m,0000561949Hz,0000000000c,0000000.000s, 009.6C,00002195
2014-12-08 11:13:23 r, 00.00m,0000561996Hz,0000000000c,0000000.000s, 009.9C,00002195
2014-12-08 11:23:23 r, 00.00m,0000562046Hz,0000000000c,0000000.000s, 010.3C,00002195
2014-12-08 11:33:23 r, 00.00m,0000562083Hz,0000000000c,0000000.000s, 010.6C,00002195
2014-12-08 11:43:23 r, 00.00m,0000562168Hz,0000000000c,0000000.000s, 010.9C,00002195
2014-12-08 11:53:23 r, 00.00m,0000562118Hz,0000000000c,0000000.000s, 011.2C,00002195
2014-12-08 12:03:23 r, 00.00m,0000562197Hz,0000000000c,0000000.000s, 011.6C,00002195
2014-12-08 12:13:23 r, 00.00m,0000562179Hz,0000000000c,0000000.000s, 011.9C,00002195
2014-12-08 12:23:23 r, 00.00m,0000562293Hz,0000000000c,0000000.000s, 011.9C,00002195
2014-12-08 12:33:23 r, 00.00m,0000562318Hz,0000000000c,0000000.000s, 012.2C,00002195
2014-12-08 12:43:23 r, 00.00m,0000562279Hz,0000000000c,0000000.000s, 012.2C,00002195
2014-12-08 12:53:23 r, 00.00m,0000562221Hz,0000000000c,0000000.000s, 012.2C,00002195
2014-12-08 13:03:23 r, 00.00m,0000562293Hz,0000000000c,0000000.000s, 012.5C,00002195
2014-12-08 13:13:23 r, 00.00m,0000562257Hz,0000000000c,0000000.000s, 012.5C,00002195
2014-12-08 13:23:23 r, 00.00m,0000562239Hz,0000000000c,0000000.000s, 012.2C,00002195
2014-12-08 13:33:23 r, 00.00m,0000562304Hz,0000000000c,0000000.000s, 012.2C,00002195
2014-12-08 13:43:23 r, 00.00m,0000562184Hz,0000000000c,0000000.000s, 011.9C,00002195
2014-12-08 13:53:23 r, 00.00m,0000561985Hz,0000000000c,0000000.000s, 011.2C,00002195
2014-12-08 14:03:23 r, 00.00m,0000561980Hz,0000000000c,0000000.000s, 010.3C,00002195
2014-12-08 14:13:23 r, 00.00m,0000561953Hz,0000000000c,0000000.000s, 010.6C,00002195
2014-12-08 14:23:23 r, 00.00m,0000562109Hz,0000000000c,0000000.000s, 010.9C,00002195
2014-12-08 14:33:23 r, 00.00m,0000562095Hz,0000000000c,0000000.000s, 010.6C,00002195
2014-12-08 14:43:23 r, 00.00m,0000562051Hz,0000000000c,0000000.000s, 010.3C,00002195
2014-12-08 14:53:23 r, 00.00m,0000561866Hz,0000000000c,0000000.000s, 009.9C,00002195
2014-12-08 15:03:23 r, 00.00m,0000561911Hz,0000000000c,0000000.000s, 009.6C,00002195
2014-12-08 15:13:23 r, 00.00m,0000561712Hz,0000000000c,0000000.000s, 009.3C,00002195
2014-12-08 15:23:23 r, 00.00m,0000561816Hz,0000000000c,0000000.000s, 009.3C,00002195
2014-12-08 15:33:23 r, 00.00m,0000561835Hz,0000000000c,0000000.000s, 009.0C,00002195
2014-12-08 15:43:23 r, 00.00m,0000534096Hz,0000000000c,0000000.000s, 009.0C,00002195
2014-12-08 15:53:23 r, 00.00m,0000434769Hz,0000000000c,0000000.000s, 008.7C,00002195
2014-12-08 16:03:23 r, 06.08m,0000330241Hz,0000000000c,0000000.000s, 008.7C,00002195
2014-12-08 16:13:23 r, 06.49m,0000225327Hz,0000000000c,0000000.000s, 008.7C,00002195
2014-12-08 16:23:23 r, 07.09m,0000130538Hz,0000000000c,0000000.000s, 008.3C,00002195
2014-12-08 16:33:23 r, 07.94m,0000059267Hz,0000000000c,0000000.000s, 008.0C,00002195
2014-12-08 16:43:23 r, 09.20m,0000018566Hz,0000000000c,0000000.000s, 008.0C,00002195
2014-12-08 16:53:23 r, 11.00m,0000003523Hz,0000000000c,0000000.000s, 008.0C,00002195
2014-12-08 17:03:23 r, 12.89m,0000000620Hz,0000000000c,0000000.000s, 007.7C,00002195
2014-12-08 17:13:23 r, 14.72m,0000000115Hz,0000004042c,0000000.009s, 007.7C,00002195
2014-12-08 17:23:23 r, 16.17m,0000000030Hz,0000015258c,0000000.033s, 007.7C,00002195
2014-12-08 17:33:23 r, 17.02m,0000000013Hz,0000033571c,0000000.073s, 007.7C,00002195
2014-12-08 17:43:23 r, 17.39m,0000000010Hz,0000047103c,0000000.102s, 007.7C,00002195
2014-12-08 17:53:23 r, 17.51m,0000000009Hz,0000052778c,0000000.115s, 007.7C,00002195
2014-12-08 18:03:23 r, 17.55m,0000000008Hz,0000054566c,0000000.118s, 007.7C,00002195
2014-12-08 18:13:23 r, 17.56m,0000000008Hz,0000055092c,0000000.120s, 007.7C,00002195
2014-12-08 18:23:23 r, 17.57m,0000000008Hz,0000055686c,0000000.121s, 007.7C,00002195
2014-12-08 18:33:23 r, 17.58m,0000000008Hz,0000055910c,0000000.121s, 007.4C,00002195
2014-12-08 18:43:23 r, 17.59m,0000000008Hz,0000056452c,0000000.123s, 007.4C,00002195
2014-12-08 18:53:23 r, 17.57m,0000000008Hz,0000055738c,0000000.121s, 007.4C,00002195
2014-12-08 19:03:23 r, 17.57m,0000000009Hz,0000055647c,0000000.121s, 007.4C,00002195
2014-12-08 19:13:23 r, 17.56m,0000000008Hz,0000054899c,0000000.119s, 007.0C,00002195
2014-12-08 19:23:23 r, 17.55m,0000000009Hz,0000054772c,0000000.119s, 007.0C,00002195
2014-12-08 19:33:23 r, 17.54m,0000000008Hz,0000053888c,0000000.117s, 007.0C,00002195
2014-12-08 19:43:23 r, 17.53m,0000000009Hz,0000053379c,0000000.116s, 007.0C,00002195
2014-12-08 19:53:23 r, 17.49m,0000000009Hz,0000051855c,0000000.113s, 007.0C,00002195
2014-12-08 20:03:23 r, 17.47m,0000000009Hz,0000050838c,0000000.110s, 006.7C,00002195
2014-12-08 20:13:23 r, 17.47m,0000000010Hz,0000050890c,0000000.110s, 006.7C,00002195
2014-12-08 20:23:23 r, 17.47m,0000000009Hz,0000050655c,0000000.110s, 006.7C,00002195
2014-12-08 20:33:23 r, 17.46m,0000000009Hz,0000049938c,0000000.108s, 006.7C,00002195
2014-12-08 20:43:23 r, 17.44m,0000000009Hz,0000049008c,0000000.106s, 006.4C,00002195
2014-12-08 20:53:23 r, 17.36m,0000000010Hz,0000046073c,0000000.100s, 006.4C,00002195
2014-12-08 21:03:23 r, 17.31m,0000000010Hz,0000043526c,0000000.094s, 006.4C,00002195
2014-12-08 21:13:23 r, 17.27m,0000000011Hz,0000042221c,0000000.092s, 006.4C,00002195
2014-12-08 21:23:23 r, 17.25m,0000000012Hz,0000041383c,0000000.090s, 006.4C,00002195
2014-12-08 21:33:23 r, 17.25m,0000000011Hz,0000041217c,0000000.089s, 006.1C,00002195
2014-12-08 21:43:23 r, 17.27m,0000000011Hz,0000042192c,0000000.092s, 006.1C,00002195
2014-12-08 21:53:23 r, 17.34m,0000000010Hz,0000044999c,0000000.098s, 006.1C,00002195
2014-12-08 22:03:23 r, 17.31m,0000000010Hz,0000043522c,0000000.094s, 006.1C,00002195
2014-12-08 22:13:23 r, 17.23m,0000000011Hz,0000040519c,0000000.088s, 005.8C,00002195
2014-12-08 22:23:23 r, 17.24m,0000000011Hz,0000040975c,0000000.089s, 005.8C,00002195
2014-12-08 22:33:23 r, 17.23m,0000000011Hz,0000040600c,0000000.088s, 005.8C,00002195
2014-12-08 22:43:23 r, 17.22m,0000000011Hz,0000040229c,0000000.087s, 005.8C,00002195
2014-12-08 22:53:23 r, 17.22m,0000000011Hz,0000040400c,0000000.088s, 005.8C,00002195
2014-12-08 23:03:23 r, 17.25m,0000000011Hz,0000041237c,0000000.089s, 005.4C,00002195
2014-12-08 23:13:23 r, 17.24m,0000000012Hz,0000041036c,0000000.089s, 005.4C,00002195
2014-12-08 23:23:23 r, 17.17m,0000000012Hz,0000038541c,0000000.084s, 005.1C,00002195
2014-12-08 23:33:23 r, 17.17m,0000000012Hz,0000038599c,0000000.084s, 005.1C,00002195
2014-12-08 23:43:23 r, 17.04m,0000000014Hz,0000034169c,0000000.074s, 004.8C,00002195
2014-12-08 23:53:23 r, 16.84m,0000000017Hz,0000028429c,0000000.062s, 004.8C,00002195
